Location: Oberwangen
(47.4286°N, 8.9679°E)
Time: 10:58:45
(UTC+00:00)

Cosmos 1816 Rocket - Pass Details

Date: 26 October 2021
Orbit: 952 x 998 km, 82.9° (Epoch: 08 December)

Event Time Altitude Azimuth Distance (km) Brightness Sun altitude
Rises 19:10:05 0° 350° (N) 3,653 7.8 -29.8°
Reaches altitude 10° 19:12:34 10° 350° (N) 2,707 7.1 -30.2°
Enters shadow 19:18:08 73° 336° (NNW) 1,013 4.5 -31.1°
